• In Latvia
  • List of Countries
  • For 7 days
  • Water Temperature
  • Satellite Maps
  • Weather Map
  • Weather Widgets
  • user-avatar
    Login

    Hourly Weather Kitzbuhel

    Today, 23 September, Saturday

    Time Temperature Precipitation Wind Pressure Humidity
    00:00 +7°C° 0 mm 1 mps 680 mmHg 85%
    01:00 +7°C° 0 mm 2 mps 680 mmHg 79%
    02:00 +6°C° 0 mm 2 mps 680 mmHg 80%
    03:00 +6°C° 0 mm 2 mps 680 mmHg 82%
    04:00 +7°C° 0 mm 1 mps 680 mmHg 83%
    05:00 +7°C° 0 mm 1 mps 680 mmHg 82%
    06:00 +8°C° 0 mm 1 mps 680 mmHg 81%
    07:00 +8°C° 0 mm 1 mps 680 mmHg 80%
    08:00 +10°C° 0 mm 1 mps 680 mmHg 75%
    09:00 +13°C° 0 mm 1 mps 681 mmHg 69%
    10:00 +15°C° 0 mm 1 mps 681 mmHg 64%
    11:00 +16°C° 0 mm 1 mps 681 mmHg 63%
    12:00 +16°C° 0 mm 1 mps 680 mmHg 62%
    13:00 +18°C° 0 mm 1 mps 680 mmHg 61%
    14:00 +16°C° 0.1 mm 1 mps 680 mmHg 65%
    15:00 +16°C° 0.1 mm 1 mps 680 mmHg 68%
    16:00 +15°C° 0.1 mm 2 mps 679 mmHg 72%
    17:00 +13°C° 0.1 mm 1 mps 679 mmHg 79%
    18:00 +12°C° 0.1 mm 1 mps 679 mmHg 87%
    19:00 +10°C° 0.1 mm 1 mps 679 mmHg 95%
    20:00 +9°C° 0 mm 1 mps 679 mmHg 95%
    21:00 +9°C° 0 mm 1 mps 679 mmHg 96%
    22:00 +9°C° 0 mm 1 mps 679 mmHg 96%
    23:00 +9°C° 0 mm 1 mps 679 mmHg 96%

    Tomorrow, 24 September, Sunday

    Time Temperature Precipitation Wind Pressure Humidity
    00:00 +8°C° 0 mm 1 mps 679 mmHg 96%
    01:00 +8°C° 0 mm 1 mps 679 mmHg 96%
    02:00 +8°C° 0 mm 1 mps 679 mmHg 96%
    03:00 +8°C° 0 mm 1 mps 678 mmHg 95%
    04:00 +8°C° 0 mm 1 mps 678 mmHg 95%
    05:00 +8°C° 0 mm 1 mps 679 mmHg 94%
    06:00 +9°C° 0 mm 1 mps 679 mmHg 93%
    07:00 +9°C° 0 mm 1 mps 679 mmHg 92%
    08:00 +10°C° 0 mm 1 mps 679 mmHg 87%
    09:00 +12°C° 0 mm 1 mps 679 mmHg 83%
    10:00 +13°C° 0 mm 1 mps 680 mmHg 78%
    11:00 +14°C° 0.3 mm 1 mps 680 mmHg 77%
    12:00 +14°C° 0.3 mm 1 mps 680 mmHg 76%
    13:00 +15°C° 0.3 mm 1 mps 679 mmHg 75%
    14:00 +14°C° 0.3 mm 1 mps 679 mmHg 77%
    15:00 +14°C° 0.3 mm 1 mps 679 mmHg 79%
    16:00 +13°C° 0.3 mm 1 mps 679 mmHg 81%
    17:00 +12°C° 0.1 mm 1 mps 679 mmHg 85%
    18:00 +10°C° 0.1 mm 1 mps 679 mmHg 90%
    19:00 +9°C° 0.1 mm 1 mps 679 mmHg 95%
    20:00 +8°C° 0 mm 1 mps 679 mmHg 95%
    21:00 +8°C° 0 mm 1 mps 679 mmHg 95%
    22:00 +7°C° 0 mm 1 mps 679 mmHg 96%
    23:00 +7°C° 0 mm 1 mps 679 mmHg 95%

    Day after tomorrow, 25 September, Monday

    Time Temperature Precipitation Wind Pressure Humidity
    00:00 +7°C° 0 mm 1 mps 679 mmHg 94%
    01:00 +6°C° 0 mm 1 mps 679 mmHg 94%
    02:00 +6°C° 0 mm 1 mps 678 mmHg 92%
    03:00 +6°C° 0 mm 1 mps 678 mmHg 90%
    04:00 +6°C° 0 mm 1 mps 678 mmHg 88%
    05:00 +6°C° 0 mm 1 mps 678 mmHg 87%
    06:00 +6°C° 0 mm 1 mps 678 mmHg 86%
    07:00 +7°C° 0 mm 1 mps 678 mmHg 85%
    08:00 +9°C° 0 mm 1 mps 679 mmHg 78%
    09:00 +11°C° 0 mm 0 mps 679 mmHg 71%
    10:00 +14°C° 0 mm 0 mps 680 mmHg 64%
    11:00 +14°C° 0 mm 0 mps 679 mmHg 61%
    12:00 +16°C° 0 mm 1 mps 679 mmHg 58%
    13:00 +18°C° 0 mm 1 mps 679 mmHg 55%
    14:00 +16°C° 0.1 mm 1 mps 679 mmHg 59%
    15:00 +16°C° 0.1 mm 1 mps 679 mmHg 62%
    16:00 +15°C° 0.1 mm 2 mps 679 mmHg 66%
    17:00 +13°C° 0.1 mm 1 mps 678 mmHg 75%
    18:00 +11°C° 0.1 mm 1 mps 678 mmHg 83%
    19:00 +9°C° 0.1 mm 1 mps 678 mmHg 91%
    20:00 +9°C° 0 mm 1 mps 678 mmHg 90%
    21:00 +8°C° 0 mm 1 mps 679 mmHg 90%
    22:00 +8°C° 0 mm 1 mps 679 mmHg 89%
    23:00 +8°C° 0 mm 1 mps 679 mmHg 89%

    26 September, Tuesday

    Time Temperature Precipitation Wind Pressure Humidity
    00:00 +7°C° 0 mm 1 mps 679 mmHg 88%
    01:00 +7°C° 0 mm 1 mps 679 mmHg 88%
    02:00 +7°C° 0 mm 1 mps 678 mmHg 88%
    03:00 +7°C° 0 mm 1 mps 678 mmHg 87%
    04:00 +6°C° 0 mm 1 mps 678 mmHg 87%
    05:00 +7°C° 0 mm 1 mps 678 mmHg 85%
    06:00 +7°C° 0 mm 1 mps 679 mmHg 84%
    07:00 +7°C° 0 mm 1 mps 679 mmHg 82%
    08:00 +10°C° 0 mm 1 mps 679 mmHg 74%
    09:00 +13°C° 0 mm 1 mps 680 mmHg 66%
    10:00 +16°C° 0 mm 1 mps 680 mmHg 58%
    11:00 +16°C° 0 mm 1 mps 680 mmHg 57%
    12:00 +18°C° 0 mm 1 mps 680 mmHg 55%
    13:00 +19°C° 0 mm 1 mps 680 mmHg 53%
    14:00 +18°C° 0 mm 1 mps 680 mmHg 57%
    15:00 +18°C° 0 mm 1 mps 679 mmHg 62%
    16:00 +16°C° 0 mm 2 mps 679 mmHg 66%
    17:00 +14°C° 0.1 mm 1 mps 679 mmHg 75%
    18:00 +12°C° 0.1 mm 1 mps 679 mmHg 83%
    19:00 +9°C° 0.1 mm 1 mps 679 mmHg 91%
    20:00 +9°C° 0 mm 1 mps 679 mmHg 91%
    21:00 +9°C° 0 mm 1 mps 679 mmHg 90%
    22:00 +8°C° 0 mm 1 mps 679 mmHg 89%
    23:00 +8°C° 0 mm 1 mps 679 mmHg 89%

    27 September, Wednesday

    Time Temperature Precipitation Wind Pressure Humidity
    00:00 +8°C° 0 mm 1 mps 679 mmHg 88%
    01:00 +8°C° 0 mm 1 mps 679 mmHg 88%
    02:00 +8°C° 0 mm 1 mps 679 mmHg 87%
    03:00 +7°C° 0 mm 1 mps 679 mmHg 86%
    04:00 +7°C° 0 mm 1 mps 679 mmHg 86%
    05:00 +8°C° 0 mm 1 mps 680 mmHg 85%
    06:00 +8°C° 0 mm 1 mps 680 mmHg 84%
    07:00 +8°C° 0 mm 1 mps 680 mmHg 83%
    08:00 +11°C° 0 mm 1 mps 681 mmHg 75%
    09:00 +14°C° 0 mm 1 mps 682 mmHg 68%
    10:00 +15°C° 0 mm 0 mps 682 mmHg 61%
    11:00 +18°C° 0 mm 1 mps 682 mmHg 60%
    12:00 +18°C° 0 mm 1 mps 682 mmHg 58%
    13:00 +19°C° 0 mm 1 mps 682 mmHg 57%
    14:00 +18°C° 0.3 mm 1 mps 682 mmHg 62%
    15:00 +18°C° 0.3 mm 1 mps 682 mmHg 67%
    16:00 +16°C° 0.3 mm 1 mps 682 mmHg 72%
    17:00 +14°C° 0.4 mm 1 mps 682 mmHg 79%
    18:00 +12°C° 0.4 mm 1 mps 681 mmHg 86%
    19:00 +9°C° 0.4 mm 0 mps 681 mmHg 93%
    20:00 +10°C° 0.2 mm 1 mps 681 mmHg 92%
    21:00 +10°C° 0.2 mm 1 mps 682 mmHg 92%
    22:00 +10°C° 0.2 mm 1 mps 682 mmHg 92%
    23:00 +10°C° 0.1 mm 1 mps 682 mmHg 92%

    28 September, Thursday

    Time Temperature Precipitation Wind Pressure Humidity
    00:00 +10°C° 0.1 mm 1 mps 682 mmHg 91%
    01:00 +10°C° 0.1 mm 1 mps 682 mmHg 91%
    02:00 +9°C° 0 mm 1 mps 682 mmHg 91%
    03:00 +9°C° 0 mm 1 mps 682 mmHg 91%
    04:00 +9°C° 0 mm 1 mps 681 mmHg 91%
    05:00 +9°C° 0 mm 1 mps 682 mmHg 91%
    06:00 +9°C° 0 mm 1 mps 682 mmHg 91%
    07:00 +9°C° 0 mm 1 mps 682 mmHg 90%
    08:00 +12°C° 0.1 mm 1 mps 683 mmHg 84%
    09:00 +14°C° 0.1 mm 1 mps 683 mmHg 77%
    10:00 +15°C° 0.1 mm 0 mps 684 mmHg 70%
    11:00 +18°C° 0.3 mm 1 mps 683 mmHg 68%
    12:00 +18°C° 0.3 mm 1 mps 683 mmHg 66%
    13:00 +19°C° 0.3 mm 1 mps 683 mmHg 64%
    14:00 +18°C° 0.6 mm 1 mps 683 mmHg 69%
    15:00 +18°C° 0.6 mm 1 mps 683 mmHg 73%
    16:00 +16°C° 0.6 mm 1 mps 683 mmHg 78%
    17:00 +14°C° 0.3 mm 1 mps 682 mmHg 83%
    18:00 +12°C° 0.3 mm 1 mps 682 mmHg 88%
    19:00 +10°C° 0.3 mm 1 mps 682 mmHg 94%
    20:00 +10°C° 0 mm 1 mps 682 mmHg 93%
    21:00 +9°C° 0 mm 1 mps 682 mmHg 93%
    22:00 +9°C° 0 mm 1 mps 683 mmHg 93%
    23:00 +9°C° 0 mm 1 mps 682 mmHg 92%
    Show more